{"data":{"norad_id":51726,"epoch":"2026-05-24T22:38:23.116704Z","epoch_age_seconds":83517,"freshness":"FRESH","line1":"1 51726U 22016N   26144.94332311  .00015035  00000+0  91006-3 0  9997","line2":"2 51726  53.2168 336.3115 0001727 115.9860 244.1312 15.10822683235088","mean_motion":15.10822683,"eccentricity":0.0001727,"inclination_deg":53.2168,"raan_deg":336.3115,"arg_perigee_deg":115.986,"mean_anomaly_deg":244.1312,"bstar":0.00091006,"rev_number":23508,"period_min":95.312310054852,"perigee_km":532.49607621539,"apogee_km":534.88342117439,"semimajor_km":6911.8267486949,"source":"CELESTRAK","updated_at":"2026-05-25T13:38:16.922204Z"}}